Погода в Верхозиме

Россия / Пензенская область     52°53′47″N   46°21′17″E
темп.,
°C
ветер,
м/с
пор.,
м/с
влажн.,
%
обл.,
%
осадки,
мм/ч
давл.,
гПа
погр.,
м
29 июля, чт
чт2900:00+18ююв226592 0.0 101413
03:00+18ссв116574 0.1 101416
06:00+18вюв3464100 0.0 101379
09:00+20ю4760100 0.0 1012275
12:00+21ююз5116194 0.0 1010879
15:00+23юз6106371 1.1 1009869
18:00+24юз486295 0.1 1007419
21:00+21ююз3876100 0.4 1007164
30 июля, пт
пт3000:00+18юз35925 1.1 100872
03:00+17зюз368882 1.1 100899
06:00+19з258394 0.0 1008156
09:00+24з34607 0.0 1008660
12:00+28з464386 0.0 10082407
15:00+25зсз115885 0.0 100816
18:00+28ююв235142 0.0 100795
21:00+22с136797 0.0 100768
31 июля, сб
сб3100:00+18ю229199 0.9 100718
03:00+18юз4992100 1.1 1008242
06:00+19зюз3694100 0.8 1008210
09:00+22з2378100 0.8 1008480
12:00+25з346290 2.3 10081106
15:00+28з564363 2.9 10082217
18:00+25зсз47522 0.0 1009358
21:00+20сз11671 0.0 101111
1 августа, вс
вс100:00+19ю22650 0.0 101112
03:00+18юз227015 0.0 101216
06:00+20юз267156 0.0 1013155
09:00+26зюз45547 0.0 1013647
12:00+29зюз46385 0.0 10122381
15:00+30зюз4634100 0.0 10122554
18:00+28зюз244910 0.0 1012111
21:00+22ссв00620 0.0 101311
2 августа, пн
пн200:00+20ююв22640 0.0 101312
03:00+19ю22580 0.0 101311
06:00+22ю22585 0.0 101348
09:00+28ююз464515 0.2 1013538
12:00+32ююз343441 0.0 10111693
15:00+33ю5731100 0.0 10101867
18:00+30ююз23415 0.0 100936
21:00+23ююв115451 0.0 101011